AirNav   ATP
 
 299 users online  

8Y8
(formerly 2IA7)
Peltz Field Airport
Ringsted, Iowa, USA

GOING TO RINGSTED?


FAA INFORMATION EFFECTIVE 08 NOVEMBER 2018

Location

FAA Identifier: 8Y8
Lat/Long: 43-15-57.5000N / 094-33-45.0350W
43-15.958333N / 094-33.750583W
43.2659722 / -94.5625097
(estimated)
Elevation: 1280 ft. / 390 m (estimated)
From city: 3 miles SW of RINGSTED, IA
Time zone: UTC -6 (UTC -5 during Daylight Saving Time)
Zip code: 50539

Airport Operations

Airport use: Open to the public
Activation date: 01/2017
Control tower: no
ARTCC: MINNEAPOLIS CENTER
FSS: FORT DODGE FLIGHT SERVICE STATION
NOTAMs facility: 8Y8 (NOTAM-D service available)
Attendance: 
Segmented circle: no

Airport Communications

CTAF: 122.9
WX ASOS at EST (12 nm NW): 121.425 (712-362-7250)
WX AWOS-3 at AXA (17 nm SE): 118.475 (515-295-9634)

Nearby radio navigation aids

VOR radial/distance  VOR name  Freq  Var
FRMr188/23.6FAIRMONT VOR/DME110.2007E
SPWr072/28.6SPENCER VOR/DME110.0005E

 
NDB name  Hdg/Dist  Freq  Var  ID
PUFF123/9.234501EPUF .--. ..- ..-.
EMMETSBURG029/11.841004EEGQ . --. --.-
POCAHONTAS005/31.442802EPOH .--. --- ....

Airport Services

Runway Information

Runway 18/36

Dimensions: 2040 x 80 ft. / 622 x 24 m
Surface: turf
RUNWAY 18  RUNWAY 36
Latitude: 43-16.126167N43-15.790500N
Longitude: 094-33.753167W094-33.748000W
Elevation: 1276.0 ft.1280.0 ft.
Traffic pattern: rightleft
Runway heading: 180 true360 true
Touchdown point: yes, no lightsyes, no lights

Airport Ownership and Management from official FAA records

Ownership: Privately-owned
Owner: MATT PELTZ
7501 TERRITORY PASS
LAKEVILLE, MN 55044
Phone 6127998797
EMAIL ADDRESS: RPELTZ@RINGTELCO.COM (ALL LOWER CASE)

Airport Operational Statistics

Aircraft based on the field: 1
Single engine airplanes: 1
    

Additional Remarks

NO SNOW REMOVAL OCT-APR.

Instrument Procedures

There are no published instrument procedures at 8Y8.

Some nearby airports with instrument procedures:

KEGQ - Emmetsburg Municipal Airport (12 nm SW)
KEST - Estherville Municipal Airport (12 nm NW)
KAXA - Algona Municipal Airport (17 nm SE)
KFRM - Fairmont Municipal Airport (24 nm N)
4D8 - Fuller Airport (26 nm W)
 
Loc | Ops | Rwys | IFR | FBO | Links
Com | Nav | Svcs | Stats | Notes


 
Aerial photo
No photo
 
Airport distance calculator
Flying to Peltz Field Airport? Find the distance to fly.

From to 8Y8

Sunrise and sunset
Times for 17-Nov-2018
 Local
(UTC-6)
 Zulu
(UTC)
Morning civil twilight06:4412:44
Sunrise07:1513:15
Sunset16:5222:52
Evening civil twilight17:2223:22

Current date and time
Zulu (UTC)  17-Nov-2018 08:34:26
Local (UTC-6)  17-Nov-2018 02:34:26
 
METAR
KEST 
11nm NW 
170752Z AUTO 01017G23KT 8SM OVC007 M03/M04 A3020 RMK AO2 PK WND 02028/0656 SNE28 CIG 005V012 SLP245 P0001 T10331044
KAXA 
18nm SE 
170815Z AUTO 03014KT 3SM BR FEW031 M02/M02 A3018 RMK AO2 PWINO
KFRM 
23nm N 
170756Z AUTO 36014KT 8SM -SN OVC006 M03/M04 A3023 RMK AO2 UPE08SNB08 SLP255 P0000 T10331039 FZRANO
TAF
KFOD 
47nm S 
170536Z 1706/1806 05011KT 2SM -SN BR SCT005 OVC011 TEMPO 1706/1709 1SM -SN BR OVC005 FM171000 02011G17KT 6SM -SN BR OVC015 FM171200 02015G23KT P6SM OVC025 FM171500 01013G21KT P6SM BKN045 FM180100 35008KT P6SM BKN200
NOTAMs
Click for the latest NOTAMs
NOTAMs are issued by the DoD/FAA and will open in a separate window not controlled by AirNav.

 

 
 

Would you like to see your business listed on this page?

 If your business provides an interesting product or service to pilots, flight crews, aircraft, or users of the Peltz Field Airport, you should consider listing it here.  To start the listing process, click on the button below
 
Add a business
 

Other Pages about Peltz Field Airport

Update a link
 
Copyright © AirNav, LLC. All rights reserved. Privacy Policy  Contact